| time (UTC) | temp F | wind direction | speed MPH | gust MPH | rain 1hr in | rain 24hr in | rain mn in | humidity % | barometer mb |
| 20260508153053 | 64 | 242 | 0.0 | 6.0 | 0.00 | 0.00 | 0.00 | 69 | 1013.2 |
| 20260508151552 | 62 | 169 | 0.0 | 6.0 | 0.00 | 0.00 | 0.00 | 71 | 1013.4 |
| 20260508150047 | 61 | 251 | 3.0 | 11.0 | 0.00 | 0.00 | 0.00 | 70 | 1013.6 |
| 20260508144547 | 60 | 163 | 1.0 | 6.0 | 0.00 | 0.00 | 0.00 | 74 | 1013.6 |
| 20260508143055 | 58 | 232 | 0.0 | 1.0 | 0.00 | 0.00 | 0.00 | 79 | 1014.1 |
| 20260508141548 | 57 | 2 | 0.0 | 2.0 | 0.00 | 0.00 | 0.00 | 80 | 1014.2 |
| 20260508140038 | 57 | 139 | 0.0 | 0.0 | 0.00 | 0.00 | 0.00 | 80 | 1014.2 |
| 20260508134536 | 57 | 226 | 0.0 | 0.0 | 0.00 | 0.00 | 0.00 | 80 | 1014.2 |
| 20260508133034 | 57 | 240 | 0.0 | 0.0 | 0.00 | 0.00 | 0.00 | 77 | 1013.9 |
| 20260508131531 | 57 | 240 | 0.0 | 0.0 | 0.00 | 0.00 | 0.00 | 75 | 1014.0 |
| 20260508130030 | 57 | 240 | 0.0 | 0.0 | 0.00 | 0.00 | 0.00 | 76 | 1013.6 |
| 20260508124527 | 56 | 142 | 0.0 | 1.0 | 0.00 | 0.00 | 0.00 | 77 | 1013.4 |
| 20260508123025 | 55 | 198 | 0.0 | 0.0 | 0.00 | 0.00 | 0.00 | 77 | 1013.2 |
| 20260508121548 | 55 | 228 | 0.0 | 0.0 | 0.00 | 0.00 | 0.00 | 76 | 1013.2 |
| 20260508120022 | 54 | 223 | 0.0 | 0.0 | 0.00 | 0.00 | 0.00 | 77 | 1012.9 |
| 20260508114518 | 54 | 186 | 0.0 | 0.0 | 0.00 | 0.00 | 0.00 | 77 | 1012.9 |
| 20260508113017 | 53 | 128 | 0.0 | 0.0 | 0.00 | 0.00 | 0.00 | 77 | 1012.9 |
| 20260508111516 | 53 | 137 | 0.0 | 1.0 | 0.00 | 0.00 | 0.00 | 78 | 1012.7 |
| 20260508110016 | 53 | 73 | 0.0 | 0.0 | 0.00 | 0.00 | 0.00 | 79 | 1012.7 |
| 20260508104514 | 52 | 67 | 0.0 | 0.0 | 0.00 | 0.00 | 0.00 | 78 | 1012.7 |
| 20260508103015 | 52 | 172 | 0.0 | 0.0 | 0.00 | 0.00 | 0.00 | 78 | 1012.8 |
| 20260508101512 | 53 | 145 | 0.0 | 1.0 | 0.00 | 0.00 | 0.00 | 78 | 1012.8 |
| 20260508100012 | 53 | 245 | 0.0 | 1.0 | 0.00 | 0.00 | 0.00 | 78 | 1013.0 |
| 20260508094510 | 52 | 250 | 0.0 | 1.0 | 0.00 | 0.00 | 0.00 | 79 | 1013.0 |
| 20260508093013 | 51 | 195 | 0.0 | 0.0 | 0.00 | 0.00 | 0.00 | 82 | 1013.0 |
| 20260508091512 | 50 | 141 | 0.0 | 2.0 | 0.00 | 0.00 | 0.00 | 84 | 1013.0 |
| 20260508090010 | 51 | 223 | 0.0 | 1.0 | 0.00 | 0.00 | 0.00 | 85 | 1013.1 |
| 20260508084602 | 52 | 247 | 0.0 | 0.0 | 0.00 | 0.00 | 0.00 | 82 | 1013.2 |
| 20260508083154 | 52 | 219 | 0.0 | 1.0 | 0.00 | 0.00 | 0.00 | 80 | 1013.2 |
| 20260508081604 | 52 | 158 | 0.0 | 1.0 | 0.00 | 0.00 | 0.00 | 80 | 1013.3 |
| 20260508080101 | 52 | 188 | 0.0 | 0.0 | 0.00 | 0.00 | 0.00 | 79 | 1013.3 |
| 20260508074556 | 53 | 214 | 0.0 | 0.0 | 0.00 | 0.00 | 0.00 | 79 | 1013.4 |
| 20260508073058 | 53 | 195 | 0.0 | 0.0 | 0.00 | 0.00 | 0.00 | 78 | 1013.5 |
| 20260508071555 | 53 | 231 | 0.0 | 0.0 | 0.00 | 0.00 | 0.00 | 77 | 1013.5 |
| 20260508070055 | 53 | 205 | 0.0 | 1.0 | 0.00 | 0.00 | 0.00 | 77 | 1013.7 |
| 20260508064606 | 53 | 140 | 0.0 | 0.0 | 0.00 | 0.00 | 0.00 | 78 | 1013.7 |
| 20260508063048 | 53 | 179 | 0.0 | 1.0 | 0.00 | 0.00 | 0.00 | 78 | 1014.0 |
| 20260508061546 | 53 | 218 | 0.0 | 2.0 | 0.00 | 0.00 | 0.00 | 80 | 1014.2 |
| 20260508060045 | 53 | 244 | 0.0 | 1.0 | 0.00 | 0.00 | 0.00 | 85 | 1014.3 |
| 20260508054542 | 53 | 216 | 0.0 | 0.0 | 0.00 | 0.00 | 0.00 | 85 | 1014.4 |
| 20260508053041 | 53 | 242 | 0.0 | 1.0 | 0.00 | 0.00 | 0.00 | 85 | 1014.4 |
| 20260508051537 | 53 | 236 | 0.0 | 0.0 | 0.00 | 0.00 | 0.00 | 82 | 1014.4 |
| 20260508050041 | 54 | 211 | 0.0 | 0.0 | 0.00 | 0.00 | 0.00 | 80 | 1014.5 |
| 20260508044535 | 54 | 198 | 0.0 | 0.0 | 0.00 | 0.00 | 0.00 | 79 | 1014.7 |
| 20260508043036 | 54 | 195 | 0.0 | 0.0 | 0.00 | 0.00 | 0.00 | 77 | 1014.8 |
| 20260508041534 | 55 | 214 | 0.0 | 0.0 | 0.00 | 0.00 | 0.00 | 76 | 1014.8 |
| 20260508040036 | 54 | 162 | 0.0 | 1.0 | 0.00 | 0.00 | 0.00 | 77 | 1014.9 |
| 20260508034533 | 53 | 219 | 0.0 | 0.0 | 0.00 | 0.00 | 0.00 | 80 | 1014.9 |
| 20260508033032 | 52 | 187 | 0.0 | 1.0 | 0.00 | 0.00 | 0.00 | 84 | 1015.1 |
| 20260508031531 | 52 | 229 | 0.0 | 0.0 | 0.00 | 0.00 | 0.00 | 83 | 1015.0 |
| 20260508030034 | 53 | 229 | 0.0 | 0.0 | 0.00 | 0.00 | 0.00 | 81 | 1015.0 |
| 20260508024531 | 53 | 198 | 0.0 | 0.0 | 0.00 | 0.00 | 0.00 | 79 | 1014.9 |
| 20260508023035 | 54 | 198 | 0.0 | 0.0 | 0.00 | 0.00 | 0.00 | 77 | 1014.7 |
| 20260508021531 | 55 | 247 | 0.0 | 0.0 | 0.00 | 0.00 | 0.00 | 76 | 1014.5 |
| 20260508020029 | 56 | 224 | 0.0 | 0.0 | 0.00 | 0.00 | 0.00 | 74 | 1014.4 |
| 20260508014533 | 58 | 222 | 0.0 | 1.0 | 0.00 | 0.00 | 0.00 | 70 | 1014.3 |
| 20260508013028 | 59 | 225 | 0.0 | 0.0 | 0.00 | 0.00 | 0.00 | 66 | 1014.1 |
| 20260508011535 | 61 | 229 | 0.0 | 1.0 | 0.00 | 0.00 | 0.00 | 64 | 1014.0 |
| 20260508010032 | 62 | 169 | 0.0 | 1.0 | 0.00 | 0.00 | 0.00 | 57 | 1013.9 |
| 20260508004526 | 63 | 244 | 0.0 | 0.0 | 0.00 | 0.00 | 0.00 | 56 | 1013.9 |
| 20260508003035 | 64 | 237 | 0.0 | 1.0 | 0.00 | 0.00 | 0.00 | 54 | 1013.7 |
| 20260508001527 | 65 | 242 | 0.0 | 1.0 | 0.00 | 0.00 | 0.00 | 53 | 1013.6 |
| 20260508000025 | 65 | 225 | 0.0 | 2.0 | 0.00 | 0.00 | 0.00 | 50 | 1013.6 |
| 20260507234523 | 67 | 186 | 0.0 | 9.0 | 0.00 | 0.00 | 0.00 | 49 | 1013.5 |
| 20260507233022 | 67 | 156 | 2.0 | 9.0 | 0.00 | 0.00 | 0.00 | 47 | 1013.6 |
| 20260507231521 | 68 | 228 | 2.0 | 10.0 | 0.00 | 0.00 | 0.00 | 48 | 1013.8 |
| 20260507230020 | 68 | 210 | 2.0 | 9.0 | 0.00 | 0.00 | 0.00 | 48 | 1013.9 |
| 20260507224518 | 69 | 239 | 1.0 | 11.0 | 0.00 | 0.00 | 0.00 | 47 | 1014.0 |
| 20260507223015 | 68 | 151 | 0.0 | 7.0 | 0.00 | 0.00 | 0.00 | 47 | 1014.1 |
| 20260507221515 | 70 | 214 | 1.0 | 8.0 | 0.00 | 0.00 | 0.00 | 45 | 1014.2 |
| 20260507214539 | 69 | 215 | 3.0 | 11.0 | 0.00 | 0.00 | 0.00 | 44 | 1014.5 |
| 20260507213033 | 70 | 191 | 1.0 | 7.0 | 0.00 | 0.00 | 0.00 | 43 | 1014.6 |
| 20260507211532 | 69 | 205 | 3.0 | 9.0 | 0.00 | 0.00 | 0.00 | 46 | 1014.7 |
| 20260507210030 | 69 | 286 | 0.0 | 6.0 | 0.00 | 0.00 | 0.00 | 45 | 1014.8 |
| 20260507204529 | 69 | 131 | 0.0 | 9.0 | 0.00 | 0.00 | 0.00 | 46 | 1015.1 |
| 20260507203027 | 70 | 291 | 0.0 | 10.0 | 0.00 | 0.00 | 0.00 | 42 | 1015.3 |
| 20260507201525 | 70 | 121 | 1.0 | 11.0 | 0.00 | 0.00 | 0.00 | 46 | 1015.6 |
| 20260507200030 | 70 | 261 | 2.0 | 9.0 | 0.00 | 0.00 | 0.00 | 41 | 1015.8 |
| 20260507194516 | 71 | 121 | 0.0 | 8.0 | 0.00 | 0.00 | 0.00 | 41 | 1016.1 |
| 20260507193013 | 70 | 271 | 0.0 | 8.0 | 0.00 | 0.00 | 0.00 | 46 | 1016.4 |
| 20260507191510 | 67 | 262 | 1.0 | 11.0 | 0.00 | 0.00 | 0.00 | 47 | 1016.5 |
| 20260507190022 | 68 | 117 | 0.0 | 8.0 | 0.00 | 0.00 | 0.00 | 45 | 1016.7 |
| 20260507184507 | 67 | 130 | 1.0 | 7.0 | 0.00 | 0.00 | 0.00 | 40 | 1016.6 |
| 20260507183016 | 69 | 215 | 1.0 | 10.0 | 0.00 | 0.00 | 0.00 | 41 | 1016.7 |
| 20260507181502 | 69 | 227 | 0.0 | 7.0 | 0.00 | 0.00 | 0.00 | 42 | 1017.0 |
| 20260507180105 | 68 | 224 | 4.0 | 10.0 | 0.00 | 0.00 | 0.00 | 40 | 1017.3 |
| 20260507174556 | 66 | 237 | 0.0 | 10.0 | 0.00 | 0.00 | 0.00 | 44 | 1017.6 |
| 20260507173056 | 67 | 212 | 0.0 | 11.0 | 0.00 | 0.00 | 0.00 | 44 | 1017.7 |
| 20260507171555 | 67 | 229 | 1.0 | 8.0 | 0.00 | 0.00 | 0.00 | 44 | 1018.1 |
| 20260507170049 | 67 | 179 | 0.0 | 8.0 | 0.00 | 0.00 | 0.00 | 44 | 1018.4 |
| 20260507164544 | 67 | 307 | 0.0 | 5.0 | 0.00 | 0.00 | 0.00 | 44 | 1018.5 |
| 20260507163044 | 66 | 233 | 2.0 | 7.0 | 0.00 | 0.00 | 0.00 | 44 | 1018.8 |
| 20260507161542 | 66 | 277 | 1.0 | 6.0 | 0.00 | 0.00 | 0.00 | 48 | 1018.8 |
| 20260507160039 | 65 | 205 | 0.0 | 7.0 | 0.00 | 0.00 | 0.00 | 47 | 1018.8 |
| 20260507154539 | 64 | 179 | 1.0 | 6.0 | 0.00 | 0.00 | 0.00 | 46 | 1019.1 |